Location: ??????
(55.8274°N, 37.9338°E)
Time: 22:21:27
(UTC+00:00)

METEOR 2-6 DEB - Visible Passes

Search period start: 19 September 2024 00:00
Search period end: 29 September 2024 00:00
Orbit: 774 x 819 km, 81.2° (Epoch: 18 September)

Date Brightness Start Highest point End Pass type
(mag) Time Alt. Az. Time Alt. Az. Time Alt. Az.
19 Sep ? 17:32:18 13° ENE 17:32:18 13° ENE 17:33:43 10° NE visible
19 Sep ? 19:13:10 54° NE 19:13:10 54° NE 19:17:23 10° NNE visible
19 Sep ? 20:54:01 26° WNW 20:54:26 26° WNW 20:58:52 10° N visible
20 Sep ? 18:45:08 42° ENE 18:45:08 42° ENE 18:49:08 10° NNE visible
20 Sep ? 20:26:00 35° WNW 20:26:04 35° WNW 20:30:53 10° N visible
21 Sep ? 18:17:05 32° ENE 18:17:05 32° ENE 18:20:48 10° NNE visible
21 Sep ? 19:57:56 46° WNW 19:57:56 46° WNW 20:02:50 10° N visible
21 Sep ? 21:38:54 10° WNW 21:40:59 12° NW 21:43:04 10° NNW visible
22 Sep ? 17:49:00 24° ENE 17:49:00 24° ENE 17:52:20 10° NNE visible
22 Sep ? 19:29:50 62° NW 19:29:50 62° NW 19:34:43 10° N visible
22 Sep ? 21:10:42 14° WNW 21:12:23 16° NW 21:15:32 10° NNW visible
23 Sep ? 17:20:51 18° ENE 17:20:51 18° ENE 17:23:41 10° NE visible
23 Sep ? 19:01:43 74° N 19:01:43 74° N 19:06:32 10° NNE visible
23 Sep ? 20:42:33 19° WNW 20:43:50 20° NW 20:47:43 10° N visible
24 Sep ? 16:52:40 13° ENE 16:52:40 13° ENE 16:54:39 10° NE visible
24 Sep ? 18:33:30 64° ENE 18:33:30 64° ENE 18:38:17 10° NNE visible
24 Sep ? 20:14:21 25° WNW 20:15:19 26° WNW 20:19:45 10° N visible
25 Sep ? 18:05:16 48° E 18:05:16 48° E 18:09:57 10° NNE visible
25 Sep ? 19:46:07 33° W 19:46:51 35° WNW 19:51:41 10° N visible
26 Sep ? 02:42:27 10° NNE 02:45:33 15° NE 02:48:41 10° E visible
26 Sep ? 17:36:57 35° E 17:36:57 35° E 17:41:31 10° NNE visible
26 Sep ? 19:17:47 44° W 19:18:26 47° WNW 19:23:33 10° N visible
26 Sep ? 20:59:35 10° WNW 21:01:41 12° NW 21:03:47 10° NNW visible
27 Sep ? 02:14:52 10° NNE 02:16:52 12° NE 02:18:52 10° ENE visible
27 Sep ? 17:08:34 26° E 17:08:41 26° E 17:12:58 10° NNE visible
27 Sep ? 18:49:23 58° WSW 18:50:03 64° WNW 18:55:20 10° N visible
27 Sep ? 20:30:13 11° W 20:32:59 16° NW 20:36:10 10° N visible
28 Sep ? 16:40:04 18° E 16:40:39 19° E 16:44:14 10° NE visible
28 Sep ? 18:20:53 64° SSW 18:21:43 87° WNW 18:27:03 10° NNE visible
28 Sep ? 20:01:42 15° W 20:04:20 20° NW 20:08:15 10° N visible
